Regional Weather Roundup
Issued by NWS

Home | Current Version | Previous Version | Graphics & Text | Print | Product List | Glossary On
Versions: 1 2 3 4 5 6 7 8 9 10 11 12 13 14 15 16 17 18 19 20 21 22 23 24 25 26 27 28 29 30 31 32 33 34 35 36 37 38 39 40 41 42 43 44 45 46 47 48 49 50
000
ASUS43 KLOT 201803
RWRIL

ILLINOIS REGIONAL WEATHER ROUNDUP
NATIONAL WEATHER SERVICE CHICAGO/ROMEOVILLE IL
100 PM CDT THU JUL 20 2017

NOTE: "FAIR" INDICATES FEW OR NO CLOUDS BELOW 12,000 FEET WITH NO
SIGNIFICANT WEATHER AND/OR OBSTRUCTIONS TO VISIBILITY.

* THESE STATIONS ARE NOT UNDER NWS QUALITY CONTROL. THEY ALSO MAY NOT
  REPORT WEATHER SUCH AS PRECIPITATION OR FOG.

ILZ001-002-007-009-015-016-024-201900-
NORTHWEST ILLINOIS

CITY           SKY/WX    TMP DP  RH WIND       PRES   REMARKS
MOLINE         SUNNY     88  74  63 W8        29.95F HX  96
6HR MIN TEMP:  75; 6HR MAX TEMP:  89; 6HR PCP:  0.04;

STERLING*      CLOUDY    80  75  84 SW5       29.96F HX  85
SAVANNA*       PTSUNNY   82  75  79 S6        29.98R HX  89
$$

ILZ003-004-008-010-011-017-018-201900-
NORTH CENTRAL ILLINOIS

CITY           SKY/WX    TMP DP  RH WIND       PRES   REMARKS
ROCKFORD       MOSUNNY   86  75  69 W10       29.97F HX  95
6HR MIN TEMP:  71; 6HR MAX TEMP:  86; 6HR PCP: TRACE;

FREEPORT*      SUNNY     83  75  77 W13       29.99S HX  90
ROCHELLE*      MOSUNNY   82  75  78 W12       29.98S HX  88
DE KALB*       CLOUDY    83  76  79 W12       29.98F HX  91
PERU*          PTSUNNY   81  74  78 SW8       29.98F HX  86
$$

ILZ005-006-012>014-019>023-201900-
NORTHEAST ILLINOIS

CITY           SKY/WX    TMP DP  RH WIND       PRES   REMARKS
CHICAGO-OHARE  PTSUNNY   87  73  62 W13       29.94F HX  94
6HR MIN TEMP:  69; 6HR MAX TEMP:  87; 6HR PCP:  0.85;

CHICAGO-MIDWAY MOSUNNY   87  74  64 W17G24    29.95S HX  95
6HR MIN TEMP:  71; 6HR MAX TEMP:  87; 6HR PCP:  0.65;

AURORA         CLOUDY    83  75  77 SW12      29.97S HX  90
6HR MIN TEMP:  69; 6HR MAX TEMP:  86; 6HR PCP:  0.49;

LANSING*       CLOUDY    84  72  66 SW16G22   29.96S HX  90
JOLIET*        MOSUNNY   88  75  66 W12G21    29.96F HX  98
WAUKEGAN       MOSUNNY   85  75  72 NW9       29.95S HX  93
6HR MIN TEMP:  67; 6HR MAX TEMP:  85; 6HR PCP:  0.64;

DUPAGE AIRPORT MOSUNNY   85  76  74 SW14      29.96S HX  94
6HR MIN TEMP:  70; 6HR MAX TEMP:  85; 6HR PCP:  0.43;

WHEELING       SUNNY     85  74  69 W12       29.96S HX  92
6HR MIN TEMP:  68; 6HR MAX TEMP:  86; 6HR PCP:  0.54;

MORRIS*        MOSUNNY   85  74  69 SW12G21   29.96S HX  93
ROMEOVILLE*    SUNNY     86  73  63 W16       29.96S HX  93
NORTHERLY ISL    N/A     85  69  58 SW14        N/A  HX  89
$$

LMZ740>746-201900-
SOUTHERN LAKE MICHIGAN

STATION/POSITION SKY/WX   TEMP    WIND        PRES    VSBY  WAVE
                          AIR SEA DIR/SP/G                  HT/PER
                          (F)     (DEG/KT/KT) (MB)    (MI)  (FT/S)
SOUTHERN BUOY              70 69  340/  2/  4 1015.0          2/ 5
WILMETTE HARBOR            78 72  270/  6/  8   N/A           2/ 2
HARRISON CRIB              83     230/ 10/ 14   N/A
BURNHAM HARBOR             85                   N/A
CALUMET HARBOR             82     210/ 10/ 15 1013.6F
BURNS HARBOR               82     220/ 12/ 17 1014.9S
MICHIGAN CITY              80     200/ 14/ 18   N/A
MICHIGAN CITY 6N           78 74  220/ 10/ 14   N/A           2/ 3
ST. JOSEPH                 75 74  300/  4/  4 1014.6F         2/ 3
$$

ILZ025>027-034>036-040-047-049-050-058-095>099-201900-
WEST-CENTRAL ILLINOIS

CITY           SKY/WX    TMP DP  RH WIND       PRES   REMARKS
QUINCY         SUNNY     96  74  48 SW12      30.00F HX 107
GALESBURG*     SUNNY     89  75  63 SW8       29.99F HX  99
MACOMB*        SUNNY     90  76  62 SW13      30.00F HX 102
JACKSONVILLE*  SUNNY     92  76  58 S10       30.02S HX 104
PITTSFIELD*    SUNNY     94  76  56 SW9       30.03F HX 107
$$

ILZ028>032-037-038-041>044-048-051>054-059>061-201900-
CENTRAL ILLINOIS

CITY           SKY/WX    TMP DP  RH WIND       PRES   REMARKS
PONTIAC        CLOUDY    85  79  82 SW7       30.00R HX  98
BLOOMINGTON    CLOUDY    89  75  63 SW20G25   29.99F HX  99
DECATUR        MOSUNNY   89  75  63 SW12      30.04S HX  99
PEORIA         MOSUNNY   90  76  63 SW16      29.98F HX 101
6HR MIN TEMP:  74; 6HR MAX TEMP:  90; 6HR PCP:  0.01;

LACON*         MOSUNNY   83  76  80 S12       29.97F HX  91
LINCOLN*       CLOUDY    90  80  71 S7        30.00F HX 106
SPRINGFIELD    CLOUDY    93  78  61 SW9       30.02F HX 108
6HR MIN TEMP:  79; 6HR MAX TEMP:  93;

TAYLORVILLE    SUNNY     91  76  62 SW9       30.04F HX 103
6HR MIN TEMP:  76; 6HR MAX TEMP:  91;

$$

ILZ033-039-045-046-055>057-062-063-201900-
EAST-CENTRAL ILLINOIS

CITY           SKY/WX    TMP DP  RH WIND       PRES   REMARKS
CHAMPAIGN      CLOUDY    85  77  77 S12       30.03F HX  95
RANTOUL*       CLOUDY    86  78  76 S8G16     30.01F HX  98
MATTOON        PTSUNNY   90  75  61 SW6       30.04F HX 100
PARIS*         MOSUNNY   86  78  76 SW8       30.05F HX  99
$$

ILZ079-100>102-201900-
SOUTHWEST ILLINOIS

CITY           SKY/WX    TMP DP  RH WIND       PRES   REMARKS
ALTON          MOSUNNY   93  75  55 SW7       30.04F HX 104
BELLEVILLE     MOSUNNY   94  74  52 SW9       30.05F HX 104
CAHOKIA*       SUNNY     98  69  38 VRB6      30.03F HX 104
SPARTA*        SUNNY     93  71  49 W3        30.07F HX 100
$$

ILZ064>066-069>071-074>076-080>082-084>086-088>090-092>094-201900-
SOUTH-CENTRAL ILLINOIS

CITY           SKY/WX    TMP DP  RH WIND       PRES   REMARKS
CARBONDALE     SUNNY     91  76  61 NW3       30.07F HX 103
6HR MIN TEMP:  75; 6HR MAX TEMP:  92;

CAIRO*         MOSUNNY   91  75  59 SW7       30.07F HX 101
EFFINGHAM*     CLOUDY    92  73  53 S5        30.06F HX  99
MARION         MOSUNNY   91  73  55 W8        30.09F HX 100
MT. VERNON     CLOUDY    93  71  48 CALM      30.07F HX 100
CENTRALIA*     MOSUNNY   94  73  50 SE3       30.06F HX 103
SALEM*         MOSUNNY   94  70  44 W5        30.06F HX 100
METROPOLIS*    MOSUNNY   91  77  61 SW6       30.09F HX 104
$$

ILZ067-068-072-073-078-083-087-091-201900-
SOUTHEAST ILLINOIS

CITY           SKY/WX    TMP DP  RH WIND       PRES   REMARKS
LAWRENCEVILLE  CLOUDY    91  75  59 SW9       30.05F HX 101
FLORA*         PTSUNNY   96  73  46 SW8       30.05F HX 105
FAIRFIELD*     MOSUNNY   93  76  57 S5        30.06F HX 104
HARRISBURG*    CLOUDY    91  75  58 CALM      30.08F HX 102
ROBINSON*      PTSUNNY   86  77  74 SW3       30.05F HX  97
CARMI*         MOSUNNY   91  74  58 CALM      30.07F HX 100
$$

ABBREVIATIONS USED IN REMARKS
   TC - TEMPERATURE IN CELSIUS
  WCI - WIND CHILL INDEX
   HX - HEAT INDEX
  VSB - VISIBILITY
$$





USA.gov is the U.S. government's official web portal to all federal, state and local government web resources and services.